| time (UTC) | temp F | wind direction | speed knots | gust knots | rain 1hr in | rain 24hr in | rain mn in | humidity % | barometer mb |
| 20260903120007 | 80 | 224 | 9.6 | 12.2 | 0.00 | 0.00 | 0.00 | 50 | 987.7 |
| 20260903114506 | 80 | 218 | 8.7 | 11.3 | 0.00 | 0.00 | 0.00 | 49 | 987.6 |
| 20260903113004 | 80 | 221 | 7.8 | 13.9 | 0.00 | 0.00 | 0.00 | 48 | 987.6 |
| 20260903111503 | 80 | 221 | 7.0 | 9.6 | 0.00 | 0.00 | 0.00 | 48 | 987.6 |
| 20260903110003 | 80 | 196 | 7.0 | 10.4 | 0.00 | 0.00 | 0.00 | 48 | 987.8 |
| 20260903104548 | 80 | 211 | 6.1 | 8.7 | 0.00 | 0.00 | 0.00 | 49 | 987.6 |
| 20260903103043 | 80 | 210 | 6.1 | 10.4 | 0.00 | 0.00 | 0.00 | 49 | 987.5 |
| 20260903101540 | 80 | 215 | 7.0 | 13.9 | 0.00 | 0.00 | 0.00 | 50 | 987.4 |
| 20260903100029 | 80 | 226 | 7.8 | 13.9 | 0.00 | 0.00 | 0.00 | 51 | 987.4 |
| 20260903094505 | 80 | 222 | 8.7 | 13.9 | 0.00 | 0.00 | 0.00 | 53 | 987.4 |
| 20260903093003 | 80 | 218 | 8.7 | 13.9 | 0.00 | 0.00 | 0.00 | 54 | 987.4 |
| 20260903091605 | 80 | 226 | 9.6 | 15.6 | 0.00 | 0.00 | 0.00 | 55 | 987.4 |
| 20260903090041 | 80 | 234 | 7.8 | 14.8 | 0.00 | 0.00 | 0.00 | 55 | 987.6 |
| 20260903084541 | 80 | 226 | 7.8 | 12.2 | 0.00 | 0.00 | 0.00 | 56 | 987.7 |
| 20260903083025 | 80 | 221 | 7.0 | 13.0 | 0.00 | 0.00 | 0.00 | 57 | 987.7 |
| 20260903081521 | 80 | 231 | 7.0 | 10.4 | 0.00 | 0.00 | 0.00 | 59 | 987.7 |
| 20260903080010 | 79 | 217 | 6.1 | 8.7 | 0.00 | 0.00 | 0.00 | 59 | 987.8 |
| 20260903074502 | 79 | 221 | 6.1 | 8.7 | 0.00 | 0.00 | 0.00 | 59 | 987.7 |
| 20260903073050 | 79 | 208 | 6.1 | 9.6 | 0.00 | 0.00 | 0.00 | 60 | 987.7 |
| 20260903071545 | 79 | 198 | 6.1 | 8.7 | 0.00 | 0.00 | 0.00 | 61 | 987.7 |
| 20260903070032 | 79 | 208 | 5.2 | 7.8 | 0.00 | 0.00 | 0.00 | 61 | 987.9 |
| 20260903064531 | 79 | 208 | 6.1 | 8.7 | 0.00 | 0.00 | 0.00 | 62 | 988.0 |
| 20260903063031 | 79 | 202 | 5.2 | 8.7 | 0.00 | 0.00 | 0.00 | 64 | 988.2 |
| 20260903061531 | 79 | 178 | 4.3 | 7.8 | 0.00 | 0.00 | 0.00 | 65 | 988.3 |
| 20260903060029 | 79 | 188 | 6.1 | 8.7 | 0.00 | 0.00 | 0.00 | 66 | 988.3 |
| 20260903054529 | 80 | 176 | 7.0 | 9.6 | 0.00 | 0.00 | 0.00 | 67 | 988.3 |
| 20260903053030 | 80 | 186 | 7.0 | 13.0 | 0.00 | 0.00 | 0.00 | 67 | 988.3 |
| 20260903051527 | 81 | 178 | 7.0 | 10.4 | 0.00 | 0.00 | 0.00 | 68 | 988.3 |
| 20260903050020 | 81 | 183 | 5.2 | 8.7 | 0.00 | 0.00 | 0.00 | 68 | 988.2 |
| 20260903044517 | 81 | 188 | 5.2 | 9.6 | 0.00 | 0.00 | 0.00 | 68 | 988.1 |
| 20260903043056 | 82 | 178 | 7.8 | 9.6 | 0.00 | 0.00 | 0.00 | 68 | 988.1 |
| 20260903041609 | 82 | 159 | 4.3 | 7.8 | 0.00 | 0.00 | 0.00 | 68 | 988.2 |
| 20260903040113 | 82 | 162 | 4.3 | 9.6 | 0.00 | 0.00 | 0.00 | 68 | 988.2 |
| 20260903034557 | 83 | 138 | 7.0 | 11.3 | 0.00 | 0.00 | 0.00 | 68 | 988.3 |
| 20260903033054 | 83 | 121 | 5.2 | 11.3 | 0.00 | 0.00 | 0.00 | 67 | 988.3 |
| 20260903031553 | 83 | 125 | 3.5 | 7.8 | 0.00 | 0.00 | 0.00 | 67 | 988.0 |
| 20260903030052 | 84 | 101 | 3.5 | 10.4 | 0.00 | 0.00 | 0.00 | 67 | 987.6 |
| 20260903024552 | 84 | 109 | 3.5 | 9.6 | 0.00 | 0.00 | 0.00 | 66 | 987.4 |
| 20260903023035 | 86 | 108 | 7.0 | 11.3 | 0.00 | 0.00 | 0.00 | 64 | 987.1 |
| 20260903021534 | 88 | 101 | 7.0 | 10.4 | 0.00 | 0.00 | 0.00 | 57 | 986.8 |
| 20260903020023 | 89 | 125 | 0.9 | 6.1 | 0.00 | 0.00 | 0.00 | 51 | 986.6 |
| 20260903014522 | 91 | 136 | 2.6 | 7.0 | 0.00 | 0.00 | 0.00 | 48 | 986.3 |
| 20260903013021 | 92 | 163 | 2.6 | 6.1 | 0.00 | 0.00 | 0.00 | 48 | 986.1 |
| 20260903011521 | 93 | 170 | 0.9 | 4.3 | 0.00 | 0.00 | 0.00 | 46 | 985.9 |
| 20260903010019 | 94 | 196 | 4.3 | 7.0 | 0.00 | 0.00 | 0.00 | 46 | 985.9 |
| 20260903004519 | 94 | 71 | 0.0 | 3.5 | 0.00 | 0.00 | 0.00 | 44 | 985.8 |
| 20260903003019 | 95 | 71 | 0.9 | 3.5 | 0.00 | 0.00 | 0.00 | 43 | 985.8 |
| 20260903001518 | 96 | 80 | 3.5 | 6.1 | 0.00 | 0.00 | 0.00 | 42 | 985.6 |
| 20260902234602 | 96 | 111 | 0.0 | 3.5 | 0.00 | 0.00 | 0.00 | 42 | 985.6 |
| 20260902233042 | 96 | 112 | 0.0 | 3.5 | 0.00 | 0.00 | 0.00 | 42 | 985.7 |
| 20260902231542 | 96 | 117 | 1.7 | 6.1 | 0.00 | 0.00 | 0.00 | 43 | 985.7 |
| 20260902230023 | 96 | 113 | 0.0 | 2.6 | 0.00 | 0.00 | 0.00 | 43 | 985.6 |
| 20260902224522 | 96 | 101 | 2.6 | 6.1 | 0.00 | 0.00 | 0.00 | 43 | 985.6 |
| 20260902223010 | 96 | 278 | 0.0 | 4.3 | 0.00 | 0.00 | 0.00 | 42 | 985.8 |
| 20260902221509 | 96 | 290 | 0.9 | 7.8 | 0.00 | 0.00 | 0.00 | 43 | 985.8 |
| 20260902220008 | 96 | 206 | 3.5 | 6.1 | 0.00 | 0.00 | 0.00 | 41 | 985.8 |
| 20260902214508 | 97 | 227 | 5.2 | 7.8 | 0.00 | 0.00 | 0.00 | 41 | 985.9 |
| 20260902213006 | 97 | 185 | 2.6 | 6.1 | 0.00 | 0.00 | 0.00 | 40 | 985.9 |
| 20260902211510 | 97 | 213 | 4.3 | 5.2 | 0.00 | 0.00 | 0.00 | 40 | 985.9 |
| 20260902210003 | 97 | 229 | 3.5 | 8.7 | 0.00 | 0.00 | 0.00 | 40 | 986.1 |
| 20260902204503 | 97 | 225 | 5.2 | 7.8 | 0.00 | 0.00 | 0.00 | 40 | 986.3 |
| 20260902203043 | 96 | 184 | 3.5 | 7.0 | 0.00 | 0.00 | 0.00 | 40 | 986.5 |
| 20260902201542 | 96 | 167 | 3.5 | 7.0 | 0.00 | 0.00 | 0.00 | 41 | 986.6 |
| 20260902200030 | 96 | 133 | 1.7 | 4.3 | 0.00 | 0.00 | 0.00 | 42 | 986.9 |
| 20260902194529 | 96 | 47 | 5.2 | 9.6 | 0.00 | 0.00 | 0.00 | 42 | 987.1 |
| 20260902193025 | 97 | 76 | 0.9 | 3.5 | 0.00 | 0.00 | 0.00 | 41 | 987.3 |
| 20260902191522 | 97 | 165 | 1.7 | 10.4 | 0.00 | 0.00 | 0.00 | 40 | 987.6 |
| 20260902190031 | 97 | 248 | 2.6 | 6.1 | 0.00 | 0.00 | 0.00 | 41 | 987.8 |
| 20260902184517 | 97 | 33 | 0.0 | 2.6 | 0.00 | 0.00 | 0.00 | 42 | 988.1 |
| 20260902183015 | 98 | 320 | 0.9 | 7.0 | 0.00 | 0.00 | 0.00 | 41 | 988.3 |
| 20260902181512 | 97 | 256 | 2.6 | 7.8 | 0.00 | 0.00 | 0.00 | 42 | 988.5 |
| 20260902180052 | 96 | 228 | 1.7 | 6.1 | 0.00 | 0.00 | 0.00 | 44 | 988.9 |
| 20260902174549 | 96 | 33 | 0.9 | 4.3 | 0.00 | 0.00 | 0.00 | 44 | 989.2 |
| 20260902173037 | 96 | 245 | 3.5 | 7.8 | 0.00 | 0.00 | 0.00 | 44 | 989.4 |
| 20260902171533 | 96 | 294 | 0.9 | 7.0 | 0.00 | 0.00 | 0.00 | 44 | 989.7 |
| 20260902170006 | 94 | 233 | 1.7 | 7.8 | 0.00 | 0.00 | 0.00 | 47 | 989.9 |
| 20260902164503 | 94 | 42 | 0.9 | 7.8 | 0.00 | 0.00 | 0.00 | 47 | 990.1 |
| 20260902163042 | 93 | 277 | 2.6 | 7.0 | 0.00 | 0.00 | 0.00 | 48 | 990.2 |
| 20260902161545 | 93 | 5 | 0.9 | 3.5 | 0.00 | 0.00 | 0.00 | 49 | 990.3 |
| 20260902160024 | 91 | 28 | 3.5 | 7.0 | 0.00 | 0.00 | 0.00 | 52 | 990.3 |
| 20260902154525 | 90 | 271 | 2.6 | 6.1 | 0.00 | 0.00 | 0.00 | 53 | 990.4 |
| 20260902153021 | 88 | 44 | 0.9 | 4.3 | 0.00 | 0.00 | 0.00 | 58 | 990.4 |
| 20260902151514 | 87 | 16 | 0.9 | 4.3 | 0.00 | 0.00 | 0.00 | 62 | 990.4 |
| 20260902150009 | 86 | 355 | 0.0 | 4.3 | 0.00 | 0.00 | 0.00 | 63 | 990.5 |
| 20260902144506 | 85 | 212 | 0.0 | 4.3 | 0.00 | 0.00 | 0.00 | 65 | 990.5 |
| 20260902143002 | 83 | 135 | 0.0 | 2.6 | 0.00 | 0.00 | 0.00 | 66 | 990.6 |
| 20260902141603 | 82 | 135 | 0.9 | 3.5 | 0.00 | 0.00 | 0.00 | 67 | 990.5 |
| 20260902140038 | 82 | 138 | 0.0 | 0.0 | 0.00 | 0.00 | 0.00 | 67 | 990.6 |
| 20260902134539 | 80 | 138 | 0.0 | 0.0 | 0.00 | 0.00 | 0.00 | 66 | 990.4 |
| 20260902133028 | 78 | 138 | 0.9 | 3.5 | 0.00 | 0.00 | 0.00 | 66 | 990.4 |
| 20260902131517 | 76 | 142 | 0.0 | 0.0 | 0.00 | 0.00 | 0.00 | 62 | 990.1 |
| 20260902130016 | 75 | 142 | 0.0 | 0.0 | 0.00 | 0.00 | 0.00 | 62 | 989.9 |
| 20260902124515 | 74 | 142 | 0.0 | 0.0 | 0.00 | 0.00 | 0.00 | 62 | 989.6 |
| 20260902123013 | 74 | 142 | 0.0 | 0.0 | 0.00 | 0.00 | 0.00 | 62 | 989.5 |
| 20260902121512 | 75 | 142 | 0.0 | 0.0 | 0.00 | 0.00 | 0.00 | 63 | 989.5 |